TimeMST,TemperatureF,Dew PointF,Humidity,Sea Level PressureIn,VisibilityMPH,Wind Direction,Wind SpeedMPH,Gust SpeedMPH,PrecipitationIn,Events,Conditions,WindDirDegrees,DateUTC
12:53 AM,37.9,24.1,57,30.09,10.0,Calm,Calm,-,N/A,,Clear,0,2013-03-03 07:53:00
1:53 AM,33.1,21.9,64,30.09,10.0,Calm,Calm,-,N/A,,Clear,0,2013-03-03 08:53:00
2:53 AM,37.0,26.1,65,30.03,10.0,Calm,Calm,-,N/A,,Clear,0,2013-03-03 09:53:00
3:53 AM,37.0,25.0,62,30.00,10.0,Calm,Calm,-,N/A,,Clear,0,2013-03-03 10:53:00
4:53 AM,35.6,24.8,65,30.01,10.0,Calm,Calm,-,N/A,,Clear,0,2013-03-03 11:53:00
5:53 AM,36.0,26.1,67,29.99,10.0,Calm,Calm,-,N/A,,Clear,0,2013-03-03 12:53:00
6:53 AM,37.0,27.0,67,29.99,10.0,Calm,Calm,-,N/A,,Clear,0,2013-03-03 13:53:00
7:53 AM,39.0,27.0,62,30.00,10.0,Calm,Calm,-,N/A,,Clear,0,2013-03-03 14:53:00
8:53 AM,41.0,28.0,60,30.00,10.0,East,4.6,-,N/A,,Mostly Cloudy,80,2013-03-03 15:53:00
9:53 AM,43.0,28.0,56,29.99,10.0,Calm,Calm,-,N/A,,Overcast,0,2013-03-03 16:53:00
10:53 AM,46.9,27.0,46,29.95,10.0,ENE,5.8,-,N/A,,Clear,70,2013-03-03 17:53:00
11:53 AM,53.1,26.1,35,29.89,10.0,ESE,5.8,-,N/A,,Clear,120,2013-03-03 18:53:00
12:53 PM,57.0,26.1,30,29.84,10.0,Calm,Calm,-,N/A,,Clear,0,2013-03-03 19:53:00
1:53 PM,60.1,26.1,27,29.81,10.0,Variable,4.6,-,N/A,,Clear,0,2013-03-03 20:53:00
2:53 PM,61.0,25.0,25,29.78,10.0,NNW,4.6,-,N/A,,Mostly Cloudy,340,2013-03-03 21:53:00
3:53 PM,59.0,25.0,27,29.78,10.0,North,8.1,-,N/A,,Overcast,350,2013-03-03 22:53:00
4:53 PM,55.0,26.1,33,29.81,10.0,NNW,12.7,-,N/A,,Overcast,330,2013-03-03 23:53:00
5:53 PM,52.0,33.1,49,29.82,10.0,NNW,15.0,-,N/A,,Overcast,340,2013-03-04 00:53:00
6:53 PM,51.1,33.1,50,29.81,10.0,NW,8.1,-,N/A,,Overcast,310,2013-03-04 01:53:00
7:53 PM,50.0,35.1,57,29.80,10.0,NW,8.1,-,0.00,Rain,Light Rain,310,2013-03-04 02:53:00
8:53 PM,52.0,34.0,50,29.79,10.0,NW,17.3,25.3,0.00,Rain,Light Rain,320,2013-03-04 03:53:00
9:17 PM,48.2,37.4,66,29.82,10.0,West,8.1,-,0.00,,Overcast,270,2013-03-04 04:17:00
9:53 PM,48.0,37.9,68,29.78,10.0,NNW,3.5,-,0.00,,Overcast,340,2013-03-04 04:53:00
10:53 PM,48.0,36.0,63,29.79,10.0,WNW,10.4,-,0.04,Rain,Light Rain,290,2013-03-04 05:53:00
11:53 PM,46.0,37.9,73,29.78,10.0,NW,10.4,-,0.00,Rain,Light Rain,320,2013-03-04 06:53:00